Location: ??????
(38.3184°N, 23.6932°E)
Time: 19:40:25
(UTC+00:00)

Cosmos 1727 Rocket - Pass Details

Date: 31 May 2022
Orbit: 961 x 996 km, 82.9° (Epoch: 25 June)

Event Time Altitude Azimuth Distance (km) Brightness Sun altitude
Rises 01:31:41 0° 125° (SE) 3,683 7.2 -15.3°
Reaches altitude 10° 01:37:06 10° 86° (E) 2,751 7.1 -14.5°
Maximum altitude 01:37:57 10° 78° (ENE) 2,732 7.3 -14.4°
Drops below altitude 10° 01:38:48 10° 70° (ENE) 2,756 7.5 -14.3°
Sets 01:44:14 0° 32° (NNE) 3,718 8.7 -13.5°
